TimeCDT,TemperatureF,Dew PointF,Humidity,Sea Level PressureIn,VisibilityMPH,Wind Direction,Wind SpeedMPH,Gust SpeedMPH,PrecipitationIn,Events,Conditions,WindDirDegrees,DateUTC
12:53 AM,57.9,37.0,46,30.01,10.0,SSE,15.0,-,N/A,,Clear,160,2013-10-24 05:53:00
1:53 AM,55.9,37.0,49,30.01,10.0,SSE,11.5,-,N/A,,Clear,160,2013-10-24 06:53:00
2:53 AM,54.0,36.0,51,30.02,10.0,South,10.4,-,N/A,,Clear,170,2013-10-24 07:53:00
3:53 AM,53.1,35.1,50,30.02,10.0,South,6.9,-,N/A,,Clear,180,2013-10-24 08:53:00
4:53 AM,51.1,35.1,54,30.02,10.0,South,8.1,-,N/A,,Clear,170,2013-10-24 09:53:00
5:53 AM,50.0,34.0,54,30.03,10.0,Calm,Calm,-,N/A,,Clear,0,2013-10-24 10:53:00
6:53 AM,55.9,35.1,45,30.04,10.0,SSW,9.2,-,N/A,,Clear,210,2013-10-24 11:53:00
7:53 AM,55.9,35.1,45,30.05,10.0,SW,15.0,-,N/A,,Clear,220,2013-10-24 12:53:00
8:53 AM,55.9,37.0,49,30.08,10.0,ESE,3.5,-,N/A,,Clear,120,2013-10-24 13:53:00
9:53 AM,61.0,37.0,41,30.10,10.0,ESE,3.5,-,N/A,,Clear,110,2013-10-24 14:53:00
10:53 AM,69.1,37.0,31,30.10,10.0,East,3.5,-,N/A,,Clear,80,2013-10-24 15:53:00
11:53 AM,73.0,37.0,27,30.10,10.0,East,4.6,-,N/A,,Clear,80,2013-10-24 16:53:00
12:53 PM,75.9,36.0,23,30.08,10.0,East,8.1,-,N/A,,Clear,80,2013-10-24 17:53:00
1:53 PM,78.1,35.1,21,30.05,10.0,ESE,10.4,-,N/A,,Clear,110,2013-10-24 18:53:00
2:53 PM,79.0,34.0,20,30.02,10.0,East,6.9,-,N/A,,Clear,90,2013-10-24 19:53:00
3:53 PM,80.1,30.9,17,30.01,10.0,East,10.4,-,N/A,,Clear,90,2013-10-24 20:53:00
4:53 PM,79.0,37.9,23,30.01,10.0,SE,10.4,21.9,N/A,,Clear,130,2013-10-24 21:53:00
5:53 PM,75.9,36.0,23,30.02,10.0,SE,13.8,-,N/A,,Clear,130,2013-10-24 22:53:00
6:53 PM,72.0,37.9,29,30.03,10.0,SE,17.3,24.2,N/A,,Clear,130,2013-10-24 23:53:00
7:53 PM,69.1,41.0,36,30.05,10.0,SE,13.8,-,N/A,,Clear,130,2013-10-25 00:53:00
8:53 PM,66.0,45.0,47,30.08,10.0,SE,15.0,23.0,N/A,,Clear,140,2013-10-25 01:53:00
9:53 PM,63.0,46.9,56,30.09,10.0,SE,16.1,25.3,N/A,,Clear,140,2013-10-25 02:53:00
10:53 PM,62.1,45.0,53,30.09,10.0,SSE,16.1,25.3,N/A,,Clear,150,2013-10-25 03:53:00
11:53 PM,61.0,45.0,56,30.08,10.0,SSE,16.1,25.3,N/A,,Clear,150,2013-10-25 04:53:00